Flag for Bermuda Weather past 2 weeks in Hamilton, Bermuda

Now
75 °F

Scattered clouds.


Feels Like: 77 °F
Forecast: 69 / 73 °F
Wind: 12 mph from South

Location: Bermuda


UV Index: 5 (Moderate)

Visibility: N/A


Pressure: 30.33 "Hg

Humidity: 69%

Dew point: 64 °F

Location of HamiltonLocation

Historic Weather in Hamilton

°F

Hamilton temperature yesterday

Maximum temperature yesterday: 73 °F (at 9:55 AM)
Minimum temperature yesterday: 70 °F (at 3:55 AM)
Average temperature yesterday: 72 °F

Past Weeks' High & Low Weather Summary

 TemperatureHumidityPressure
High75 °F (Apr 9, 12:55 PM)94% (Apr 6, 12:55 PM)30.42 "Hg (Apr 6, 12:55 PM)
Low63 °F (Apr 11, 12:55 AM)46% (Apr 11, 10:55 AM)29.80 "Hg (Apr 9, 6:55 PM)
Average69 °F74%30.19 "Hg
* Reported Apr 3 2:55 PM — Apr 18 2:55 PM, Hamilton, Weather by CustomWeather, © 2014

Note: Actual official high and low records may vary slightly from our data, if they occured in-between our weather recording intervals... More about our weather records

Advertising

Historic Weather Conditions — Data for Previous 24 hours

 ConditionsComfort  
Time TempWeatherWind HumidityBarometerVisibility
2:55 PM
Apr 18
75 °FScattered clouds.12 mph69%30.33 "HgN/A
1:55 PM73 °FPartly sunny.14 mph74%30.33 "HgN/A
12:55 PM73 °FPartly sunny.14 mph74%30.33 "HgN/A
11:55 AM72 °FBroken clouds.12 mph83%30.33 "HgN/A
10:55 AM73 °FBroken clouds.14 mph74%30.33 "HgN/A
9:55 AM72 °FBroken clouds.14 mph78%30.33 "HgN/A
8:55 AM72 °FPartly sunny.14 mph78%30.33 "HgN/A
7:55 AM70 °FPartly sunny.14 mph83%30.33 "HgN/A
6:55 AM70 °FScattered showers. Overcast.10 mph83%30.30 "HgN/A
5:55 AM70 °FSprinkles. Partly cloudy.9 mph83%30.33 "HgN/A
4:55 AM70 °FPartly cloudy.13 mph83%30.30 "HgN/A
3:55 AM70 °FPartly cloudy.14 mph83%30.30 "HgN/A
2:55 AM70 °FPartly cloudy.15 mph83%30.30 "HgN/A
1:55 AM70 °FPassing clouds.14 mph83%30.33 "HgN/A
12:55 AM70 °FPartly cloudy.14 mph83%30.36 "HgN/A
11:55 PM
Apr 17
70 °FPartly cloudy.13 mph83%30.36 "HgN/A
10:55 PM70 °FPartly cloudy.13 mph83%30.36 "HgN/A
9:55 PM70 °FPartly cloudy.12 mph83%30.36 "HgN/A
8:55 PM70 °FPassing clouds.10 mph83%30.36 "HgN/A
6:55 PM72 °FPartly sunny.9 mph78%30.36 "HgN/A
5:55 PM73 °FPartly sunny.10 mph78%30.36 "HgN/A
4:55 PM73 °FMore clouds than sun.12 mph78%30.36 "HgN/A
Weather by CustomWeather, © 2014

See weather overview